Simultaneous Nadir Overpasses (SNOs) Predictions

Prediction of SNOs between TERRA and METOP-C Satellite Orbit:

Table of predicted SNOs for the next 14.0 days since TLE Epoch: 9/21/2019
Index Date (TERRA) Time (TERRA) Lat,Lon (TERRA) SZA (TERRA ) Date (METOP-C) Time (METOP-C) Lat,Lon (METOP-C) SZA (METOP-C ) Distance(km) Time Diff (sec)
1 09/21/2019 04:18:23 81.31, 162.52 83.43 09/21/2019 04:17:49 81.31, 162.61 83.43 1.68 34
2 09/21/2019 05:07:49 -81.32, -29.57 96.52 09/21/2019 05:08:29 -81.32, -29.50 96.50 1.30 40
3 09/23/2019 23:52:37 81.31,-130.94 84.56 09/23/2019 23:52:10 81.31,-130.99 84.54 1.01 27
4 09/24/2019 00:42:04 -81.31, 36.63 95.44 09/24/2019 00:42:51 -81.31, 36.56 95.42 1.15 47
5 09/26/2019 19:26:52 81.32, -64.43 85.69 09/26/2019 19:26:32 81.31, -64.59 85.66 2.83 20
6 09/26/2019 20:16:19 -81.31, 103.16 94.31 09/26/2019 20:17:13 -81.31, 103.01 94.30 2.51 54
7 09/29/2019 15:01:08 81.30, 1.66 86.75 09/29/2019 15:00:54 81.31, 1.81 86.77 2.91 14
8 09/29/2019 15:50:34 -81.32, 169.65 93.18 09/29/2019 15:51:35 -81.31, 169.46 93.18 3.28 61
9 10/02/2019 10:35:21 81.32, 68.46 87.92 10/02/2019 10:35:14 81.31, 68.61 87.93 2.62 7




NCC Satellite Simultaneous Nadir Overpasses (SNOs) Prediction Service
